Temp
60 60 61 60 60 60 60 60 60 60 60 60 60 60 60 60 59 57 51 61 63 67 65 61 62 62 61 57 59 56 46 42 47 48 52 55 56 59 61 58 58 59 59 60 63
59 59 59 60 59 59 59 59 59 59 59 59 60 60 60 60 51 50 62 66 66 66 59 56 56 58 56 56 56 52 45 47 53 54 54 55 55 55 57 55 56 57 60 62 62
59 59 59 59 59 59 59 59 59 59 59 59 59 59 59 55 46 48 63 65 65 64 59 57 56 56 51 55 55 50 47 53 55 56 58 56 55 56 54 53 58 58 57 58 60
58 58 58 58 58 59 59 59 59 59 59 59 59 59 58 49 33 51 62 63 64 62 58 54 52 48 47 50 56 48 53 56 57 58 56 55 57 57 57 58 60 62 60 58 59
57 57 57 57 58 58 59 59 59 59 59 59 59 59 49 41 41 56 59 59 58 57 52 50 48 46 44 49 52 48 51 56 57 57 55 56 56 55 57 61 60 61 61 59 59
57 57 57 57 57 58 58 58 58 58 58 59 59 57 42 35 52 53 53 55 53 53 51 52 47 48 44 46 47 49 53 54 54 55 54 54 54 56 56 57 58 59 58 58 59
57 56 56 57 57 57 57 58 58 58 58 58 58 51 39 40 51 50 54 51 53 51 49 55 53 47 45 44 48 48 46 50 53 53 52 54 50 51 59 57 57 58 58 58 59
56 56 56 56 57 57 57 57 58 58 58 58 57 45 35 51 50 53 53 51 54 54 52 54 57 48 45 48 46 43 42 39 47 53 54 53 47 54 59 58 57 57 57 58 59
56 56 56 56 56 56 57 57 57 57 58 57 45 40 35 54 48 50 49 48 50 51 52 58 53 44 44 37 36 39 32 36 43 50 54 51 43 55 58 56 56 55 56 57 58
56 56 56 56 56 56 56 55 55 53 52 53 49 35 41 40 46 48 49 49 45 45 45 45 43 37 37 34 28 32 35 35 38 46 48 44 47 52 57 54 54 55 55 55 57
56 56 56 56 56 56 47 41 36 36 38 33 35 35 39 44 47 45 49 46 43 40 31 38 32 29 35 38 39 37 33 34 39 48 46 46 46 52 55 52 52 52 53 54 55
56 56 56 55 55 54 43 36 36 38 30 38 38 38 42 43 37 42 48 38 36 30 32 30 25 35 40 40 40 37 35 31 39 45 44 41 42 49 54 55 55 56 54 55 55
56 55 55 55 54 45 40 38 43 41 28 33 38 38 41 42 36 37 42 38 31 29 28 25 32 38 36 35 36 35 33 35 36 39 42 39 38 42 49 51 53 57 56 57 56
55 55 55 54 45 39 37 43 43 40 11 27 34 39 42 41 34 44 43 39 33 28 28 26 34 33 32 31 34 30 39 39 37 35 28 39 31 43 48 49 51 55 55 54 57
55 55 54 52 39 37 41 43 41 35 0 31 33 45 41 34 36 37 43 38 31 30 30 26 29 29 28 31 36 33 40 37 37 35 32 32 32 35 44 46 51 53 56 54 59
55 54 52 45 40 40 43 41 36 13 -0 17 31 31 32 33 34 38 37 40 37 31 31 29 34 33 34 34 35 40 35 35 35 33 24 34 32 31 36 46 49 53 56 59 54
54 53 47 44 37 42 40 32 13 5 22 17 18 29 28 28 31 31 31 26 24 17 12 26 28 32 35 30 34 34 28 23 22 22 23 38 29 39 41 43 46 51 54 57 53
53 50 46 43 41 40 33 19 3 4 5 28 29 28 21 25 29 28 27 20 25 24 19 13 14 28 33 31 29 32 28 24 17 19 25 33 28 38 46 49 46 44 47 49 46
50 38 38 40 42 37 25 5 9 10 27 26 27 15 7 21 23 23 18 17 24 30 22 16 18 32 33 34 35 28 26 34 25 23 20 28 37 41 40 40 42 43 44 44 45
37 35 36 41 39 31 17 16 11 28 30 29 18 19 3 5 15 14 12 20 23 31 32 27 18 29 33 35 36 33 35 26 27 18 14 24 30 34 36 39 40 40 39 41 44
35 27 39 41 36 22 9 7 14 29 31 27 22 18 16 11 11 5 10 19 29 29 32 29 26 26 28 23 26 28 26 30 28 27 21 17 23 33 40 41 42 40 39 39 40
28 18 38 38 20 14 9 12 30 29 29 27 27 27 23 21 10 13 10 20 32 32 23 29 26 20 20 31 36 33 30 29 22 23 28 27 28 34 35 36 38 37 37 38 40
22 20 37 34 10 6 21 20 27 26 28 24 23 28 27 24 16 20 22 31 30 28 20 24 18 13 15 26 31 28 31 31 32 30 24 22 25 35 34 34 35 35 36 37 37
23 17 21 21 13 14 14 10 16 30 27 30 25 26 25 23 26 16 24 31 31 30 36 31 22 20 11 15 23 23 24 30 29 25 26 27 28 31 31 32 33 33 34 35 36
27 15 15 10 13 15 17 21 20 20 24 29 26 25 21 12 21 21 25 27 31 33 32 23 15 15 22 24 24 24 26 27 25 26 23 28 33 35 32 32 33 34 34 35 35
23 20 25 18 22 21 21 15 21 23 24 19 21 28 24 17 22 23 27 26 24 27 25 24 14 17 15 25 26 25 25 26 27 27 26 26 25 35 32 32 31 35 35 35 34
28 29 26 19 20 16 11 18 24 27 30 31 28 26 25 27 29 29 30 29 29 25 26 23 21 14 13 24 24 15 24 22 23 28 28 22 33 35 31 34 33 33 35 35 34
MSLP
1025.37 1025.23 1024.92 1024.93 1024.62 1024.37 1024.06 1023.91 1023.76 1023.44 1023.03 1022.51 1022.16 1021.68 1020.89 1020.38 1019.71 1019.32 1019.48 1019.53 1018.89 1018.18 1017.53 1017.13 1016.78 1016.46 1016.16 1016.35 1016.15 1016.65 1017.37 1017.50 1016.77 1016.24 1015.20 1014.49 1014.25 1014.16 1013.94 1014.02 1014.16 1014.49 1014.78 1015.06 1015.76
1025.63 1025.50 1025.21 1024.87 1024.93 1024.73 1024.39 1024.22 1024.03 1023.68 1023.38 1022.70 1022.24 1021.90 1021.27 1020.54 1020.38 1020.00 1020.09 1019.35 1018.82 1018.33 1017.94 1017.82 1017.39 1016.83 1016.56 1016.62 1016.48 1016.63 1017.18 1016.74 1015.78 1015.20 1014.80 1014.52 1014.28 1014.29 1014.27 1014.33 1014.41 1014.72 1015.26 1015.56 1016.09
1025.74 1025.53 1025.30 1024.99 1025.08 1024.92 1024.47 1024.33 1024.08 1023.93 1023.55 1023.11 1022.61 1022.09 1021.12 1020.88 1021.00 1021.00 1020.26 1019.56 1018.99 1018.50 1018.38 1017.98 1017.74 1017.56 1017.36 1016.95 1016.62 1016.59 1016.54 1016.08 1015.36 1014.86 1014.53 1014.45 1014.36 1014.26 1014.34 1014.52 1014.50 1014.75 1015.51 1016.25 1016.35
1026.21 1025.97 1025.63 1025.29 1025.10 1024.72 1024.46 1024.21 1024.08 1023.90 1023.60 1023.20 1022.66 1021.99 1021.23 1021.01 1021.33 1021.21 1020.34 1019.81 1019.56 1018.92 1018.63 1018.32 1018.19 1018.03 1017.87 1017.33 1016.76 1016.58 1015.98 1015.62 1015.17 1014.86 1014.65 1014.45 1014.25 1014.24 1014.20 1014.12 1014.29 1014.59 1015.16 1015.93 1016.33
1025.81 1025.89 1025.75 1025.52 1025.30 1024.88 1024.47 1024.28 1024.14 1023.88 1023.53 1023.13 1022.83 1022.34 1021.84 1021.80 1021.47 1020.96 1020.47 1020.09 1019.77 1019.25 1019.20 1019.22 1019.12 1018.96 1018.66 1018.03 1017.33 1016.59 1015.95 1015.39 1014.96 1014.93 1014.74 1014.54 1014.33 1014.34 1014.14 1013.78 1014.18 1014.32 1015.21 1015.47 1016.15
1026.24 1026.36 1025.83 1025.59 1025.35 1024.96 1024.52 1024.28 1023.97 1023.62 1023.32 1023.08 1022.74 1022.68 1022.84 1022.54 1021.56 1021.23 1020.66 1020.42 1020.37 1019.86 1019.82 1019.73 1019.79 1019.78 1019.49 1018.90 1018.04 1017.13 1016.41 1015.65 1015.14 1015.00 1014.87 1014.94 1014.65 1014.47 1014.07 1013.86 1014.23 1014.58 1015.13 1015.57 1015.71
1026.40 1025.95 1025.36 1025.22 1024.99 1024.94 1024.43 1023.98 1023.50 1023.23 1023.06 1022.71 1022.58 1022.80 1023.16 1022.18 1021.60 1021.28 1020.67 1020.82 1020.59 1020.36 1020.20 1020.12 1020.00 1019.93 1019.79 1019.25 1018.55 1017.68 1017.29 1016.36 1015.54 1015.24 1015.08 1015.16 1015.03 1014.46 1014.03 1014.13 1014.31 1014.77 1015.22 1015.60 1015.79
1026.50 1026.35 1026.17 1025.74 1024.99 1024.59 1024.33 1023.87 1023.37 1022.90 1022.66 1022.53 1022.63 1023.08 1022.74 1021.74 1021.51 1021.29 1020.88 1020.81 1020.61 1020.42 1020.42 1020.36 1020.07 1020.22 1020.03 1019.57 1018.94 1018.47 1017.84 1017.00 1015.47 1015.40 1015.22 1015.27 1014.04 1014.28 1013.84 1014.30 1014.56 1014.72 1015.07 1015.34 1015.44
1026.42 1026.31 1026.17 1025.82 1025.32 1024.98 1024.18 1023.25 1023.03 1022.80 1022.56 1022.59 1023.13 1023.35 1022.73 1021.70 1021.72 1021.75 1021.42 1021.42 1021.02 1020.63 1020.22 1020.01 1020.08 1020.35 1020.09 1020.32 1020.10 1018.96 1017.90 1017.27 1016.42 1015.41 1015.33 1015.39 1014.50 1013.89 1013.63 1014.15 1014.49 1014.67 1014.74 1014.85 1015.08
1026.38 1026.13 1025.77 1025.49 1025.29 1024.79 1023.95 1023.29 1023.41 1023.04 1023.10 1022.92 1023.29 1023.87 1022.78 1022.89 1022.46 1022.15 1021.56 1021.30 1021.33 1021.17 1020.81 1020.56 1020.64 1020.85 1020.63 1020.40 1019.66 1019.26 1018.68 1017.82 1016.96 1016.08 1015.87 1015.46 1014.75 1014.07 1013.86 1013.99 1014.13 1014.14 1014.21 1014.32 1014.46
1026.42 1026.19 1025.95 1025.55 1025.10 1024.67 1024.39 1024.03 1024.53 1024.44 1024.71 1025.04 1024.78 1024.42 1023.52 1023.14 1022.40 1022.10 1021.58 1021.63 1021.55 1021.83 1022.25 1022.02 1021.84 1021.25 1021.12 1020.55 1020.14 1019.97 1019.67 1018.84 1017.75 1016.57 1016.26 1015.27 1014.97 1014.06 1013.89 1013.91 1013.98 1013.68 1013.82 1013.84 1013.82
1026.24 1026.17 1026.02 1025.82 1025.57 1025.19 1025.31 1026.33 1027.05 1027.28 1026.31 1025.15 1024.48 1024.24 1023.94 1023.43 1022.95 1022.41 1021.88 1022.32 1022.47 1022.84 1022.92 1023.04 1022.67 1022.02 1021.42 1021.03 1020.54 1020.18 1019.94 1019.44 1018.27 1017.26 1016.96 1015.93 1014.94 1014.09 1013.32 1013.19 1013.12 1013.27 1013.27 1013.14 1013.19
1026.17 1026.09 1025.99 1025.95 1025.91 1026.12 1026.56 1027.05 1026.92 1026.93 1027.02 1025.54 1024.65 1024.27 1023.84 1023.46 1023.02 1022.69 1022.59 1022.75 1023.12 1023.39 1023.62 1023.74 1022.72 1022.23 1022.09 1021.61 1021.18 1020.48 1019.97 1019.91 1019.60 1018.34 1017.17 1016.51 1014.91 1013.96 1012.77 1012.80 1012.56 1012.22 1012.43 1012.59 1012.71
1026.05 1026.11 1026.11 1026.14 1026.53 1026.89 1027.11 1027.05 1026.78 1026.89 1027.61 1026.34 1025.02 1024.17 1023.70 1023.27 1023.08 1022.72 1022.62 1023.02 1023.59 1023.89 1024.07 1024.02 1023.29 1022.90 1022.54 1022.13 1021.73 1020.80 1020.34 1020.02 1019.70 1019.87 1018.48 1017.11 1013.81 1012.29 1012.09 1011.92 1011.43 1011.50 1011.81 1012.10 1012.38
1025.86 1026.18 1026.22 1026.15 1027.07 1027.36 1027.59 1027.07 1026.97 1027.38 1028.06 1026.71 1025.09 1023.80 1023.71 1023.88 1023.74 1022.92 1022.79 1023.12 1023.66 1024.08 1024.65 1024.10 1023.43 1023.10 1022.70 1022.06 1021.89 1020.91 1020.57 1020.29 1019.59 1019.41 1019.30 1017.57 1016.17 1010.78 1011.63 1010.52 1009.69 1010.91 1011.13 1011.50 1011.70
1025.71 1026.16 1026.47 1026.83 1027.36 1027.71 1027.39 1027.21 1027.59 1028.92 1029.18 1027.55 1026.15 1025.10 1024.86 1024.65 1024.45 1023.72 1023.26 1023.20 1023.66 1024.20 1024.44 1023.94 1023.53 1023.07 1022.45 1022.34 1021.81 1021.42 1020.97 1020.42 1020.00 1019.78 1018.87 1015.89 1015.97 1011.37 1010.65 1009.33 1009.90 1009.98 1010.18 1010.65 1011.34
1025.90 1026.25 1026.76 1027.16 1027.75 1027.53 1027.44 1028.16 1029.95 1030.44 1030.56 1029.18 1027.81 1027.02 1026.71 1026.01 1025.23 1024.82 1024.59 1024.56 1024.84 1025.05 1024.92 1024.23 1023.02 1022.44 1022.36 1022.47 1021.76 1021.29 1021.37 1020.37 1019.95 1018.62 1015.67 1015.14 1015.88 1010.13 1010.02 1009.97 1009.69 1009.36 1009.80 1010.18 1010.90
1026.45 1026.64 1027.30 1027.70 1027.72 1027.76 1028.42 1029.84 1031.54 1031.80 1031.04 1029.77 1028.90 1028.29 1028.26 1027.70 1026.82 1026.47 1026.00 1025.75 1025.06 1025.32 1025.16 1024.68 1023.22 1021.93 1021.71 1021.40 1020.97 1020.70 1020.54 1019.46 1018.36 1017.54 1014.52 1015.38 1013.65 1011.01 1009.94 1010.11 1010.16 1010.10 1010.42 1010.81 1011.65
1026.64 1027.71 1027.81 1028.00 1028.01 1028.34 1029.66 1031.78 1031.85 1031.57 1030.53 1030.01 1029.48 1029.64 1029.59 1029.12 1028.87 1028.21 1027.54 1027.01 1026.12 1025.60 1025.27 1024.51 1023.08 1021.16 1020.72 1020.33 1020.77 1020.38 1019.89 1019.06 1018.97 1017.46 1015.87 1014.30 1012.53 1011.54 1010.99 1010.89 1010.95 1011.13 1011.29 1012.02 1012.26
1027.10 1028.03 1028.52 1028.25 1028.28 1029.16 1030.85 1032.03 1031.58 1030.57 1029.83 1029.58 1030.20 1030.47 1031.39 1030.72 1030.29 1029.74 1028.65 1027.15 1026.27 1025.48 1025.10 1024.19 1022.99 1021.37 1020.57 1020.56 1020.22 1019.61 1019.45 1019.38 1018.69 1017.38 1015.75 1013.79 1012.33 1011.79 1011.69 1011.72 1011.82 1012.27 1012.66 1012.92 1013.38
1027.32 1028.62 1028.70 1028.58 1028.70 1030.62 1032.74 1032.57 1031.16 1029.83 1029.50 1029.29 1029.61 1030.13 1030.73 1031.04 1030.90 1030.44 1029.21 1027.20 1026.01 1025.42 1024.97 1024.41 1023.26 1021.88 1021.29 1020.06 1019.24 1019.83 1019.51 1019.02 1018.06 1016.81 1015.63 1014.36 1012.73 1011.95 1011.95 1012.03 1012.25 1012.88 1013.54 1013.82 1014.48
1028.02 1029.16 1028.99 1028.82 1030.40 1032.01 1032.90 1032.13 1030.72 1029.50 1029.03 1028.88 1028.89 1029.28 1029.79 1030.18 1030.54 1030.12 1028.88 1027.11 1025.87 1025.47 1025.03 1024.36 1023.68 1022.34 1021.17 1019.74 1019.01 1019.12 1018.82 1018.63 1018.09 1016.61 1015.59 1014.70 1013.01 1012.57 1012.65 1012.74 1013.03 1013.79 1014.18 1014.77 1015.05
1028.81 1029.42 1029.16 1029.41 1031.76 1033.06 1032.61 1032.02 1030.66 1029.47 1028.70 1028.57 1028.54 1028.50 1028.72 1029.34 1029.60 1028.90 1027.70 1026.02 1025.52 1025.41 1025.00 1024.74 1023.99 1023.24 1021.68 1020.78 1019.90 1019.46 1018.52 1018.50 1017.67 1017.12 1015.99 1015.28 1013.78 1013.56 1013.44 1013.54 1013.94 1014.77 1015.19 1015.79 1016.18
1029.34 1030.29 1030.71 1031.17 1032.60 1032.71 1032.85 1031.93 1030.59 1029.01 1028.52 1028.05 1027.94 1028.17 1028.40 1028.52 1028.40 1027.86 1027.00 1025.79 1025.39 1025.13 1024.90 1024.91 1024.49 1023.84 1022.85 1021.40 1020.55 1019.79 1018.74 1017.91 1017.36 1016.57 1015.29 1015.45 1015.17 1014.27 1014.95 1014.01 1014.43 1015.29 1016.06 1016.58 1016.87
1029.34 1030.71 1031.58 1032.48 1032.97 1032.90 1032.46 1031.50 1030.41 1029.25 1028.55 1027.94 1027.56 1027.53 1027.81 1028.13 1027.69 1027.09 1026.21 1025.60 1025.04 1024.80 1024.87 1025.03 1024.49 1023.61 1022.42 1021.52 1020.69 1019.64 1018.65 1017.99 1017.53 1016.99 1015.98 1014.86 1014.49 1013.84 1014.42 1015.86 1014.77 1015.09 1016.11 1016.99 1017.48
1028.68 1030.24 1031.52 1032.27 1032.26 1032.58 1032.18 1030.97 1029.66 1028.71 1028.13 1027.65 1027.34 1026.65 1026.93 1027.10 1026.66 1026.27 1025.98 1025.74 1025.15 1024.85 1024.89 1024.94 1024.36 1023.58 1022.14 1020.43 1019.74 1018.95 1018.08 1017.61 1017.14 1016.70 1016.07 1014.95 1014.66 1013.36 1014.33 1015.55 1016.12 1015.64 1016.30 1017.20 1017.88
1028.21 1028.95 1029.69 1031.24 1031.85 1032.04 1030.94 1029.55 1028.75 1028.12 1026.94 1026.54 1026.43 1026.41 1026.03 1025.47 1025.50 1025.37 1025.38 1025.38 1025.14 1025.01 1025.12 1025.15 1024.75 1024.28 1022.58 1021.07 1019.93 1018.45 1016.24 1016.27 1015.97 1015.34 1015.07 1014.96 1013.19 1013.31 1014.28 1014.90 1015.57 1015.83 1016.39 1017.30 1018.05
Wind_Speed
12 12 13 13 13 14 15 17 18 19 20 21 21 21 22 24 18 6 9 10 10 18 13 7 4 4 2 2 3 3 4 4 6 7 5 2 5 3 5 3 1 1 2 0 16
14 14 14 13 12 13 13 14 16 18 18 21 22 22 21 20 5 6 13 18 16 19 6 7 5 7 2 2 2 5 4 9 7 6 4 1 2 1 4 2 1 1 6 10 16
13 15 16 16 13 13 14 14 15 16 17 18 20 22 24 9 1 2 17 19 17 16 4 3 4 3 1 1 3 5 7 5 4 4 4 3 2 2 2 3 3 5 6 8 14
12 13 14 15 15 15 14 14 15 16 17 17 19 21 21 3 2 3 19 18 14 11 6 5 4 1 3 4 4 4 7 6 3 4 2 3 1 3 4 4 1 7 10 9 14
14 15 15 15 15 16 15 14 15 16 16 17 17 16 7 6 2 7 17 13 7 8 7 5 5 5 3 3 2 3 4 7 5 6 4 0 4 3 5 6 4 4 11 14 11
13 13 15 16 16 16 16 16 17 17 16 15 13 8 4 3 3 8 8 7 7 5 6 6 4 3 4 4 3 5 6 3 6 6 3 5 4 4 2 1 3 6 9 8 12
12 14 17 18 18 16 17 18 20 19 17 12 7 4 2 6 4 8 7 3 5 3 5 5 4 6 6 6 6 4 5 4 6 6 5 4 7 7 7 2 3 6 6 6 7
9 9 12 15 18 18 19 19 19 19 11 5 6 4 5 5 5 4 6 6 7 4 1 6 2 2 3 6 5 4 2 6 4 8 4 7 18 10 9 8 8 7 7 7 10
10 10 11 13 14 16 19 21 16 10 4 5 5 5 7 7 5 5 4 4 7 5 4 4 2 2 2 2 4 4 4 6 5 9 7 9 3 9 8 8 9 8 8 9 8
11 12 14 14 15 15 19 16 5 5 5 2 2 2 3 4 5 7 5 2 3 6 6 3 2 2 1 4 7 3 5 4 6 5 7 6 13 8 6 9 11 10 9 9 9
10 11 12 14 15 17 9 6 9 6 9 2 6 4 5 7 4 3 4 5 4 4 3 5 1 6 6 8 6 7 6 8 6 5 4 16 14 17 9 7 7 9 9 9 11
9 9 11 11 10 11 5 6 2 3 9 4 5 4 6 2 4 5 2 5 4 2 3 4 4 7 6 9 9 14 16 9 10 6 4 4 13 15 15 15 13 15 13 10 6
10 9 10 9 5 6 5 3 2 2 2 6 4 4 5 2 3 4 1 1 2 0 2 5 6 11 4 8 12 11 15 11 7 9 6 3 10 10 10 10 8 13 8 11 10
10 7 7 5 5 2 3 6 3 4 7 6 4 2 3 3 3 3 2 2 2 2 2 5 8 9 10 8 4 13 4 10 12 5 5 1 11 18 19 16 18 16 12 10 12
6 3 4 5 3 3 3 2 3 5 5 8 7 3 7 1 4 1 0 3 4 4 4 8 3 3 8 8 7 8 5 6 11 15 6 6 7 7 10 22 24 17 15 13 15
6 6 7 4 3 1 2 4 5 10 5 8 6 7 7 2 2 5 2 2 1 1 4 10 1 3 2 2 4 6 6 10 3 8 11 18 9 6 9 18 12 14 19 18 11
9 10 5 2 1 2 3 5 8 7 5 9 3 5 4 4 5 2 3 3 2 2 4 4 8 7 5 5 7 8 7 5 7 8 15 17 8 23 4 4 5 14 15 16 11
13 8 5 2 1 2 4 8 7 4 6 4 4 4 2 6 3 5 4 3 3 1 1 2 9 9 8 18 5 10 8 7 9 8 17 6 13 13 6 7 2 1 2 4 7
10 3 3 2 2 4 7 6 9 7 3 4 6 5 7 4 2 6 1 3 3 2 5 3 8 3 4 5 14 5 10 14 10 3 2 7 26 9 2 2 2 5 2 7 10
4 3 2 3 3 5 7 5 4 4 1 2 0 2 2 6 5 5 1 5 4 4 1 4 6 5 3 4 10 11 3 7 6 7 5 6 18 16 5 5 3 3 3 5 5
5 4 2 5 4 6 3 8 6 6 4 4 3 3 5 3 3 3 6 7 2 4 4 6 5 3 4 5 8 7 12 8 4 8 5 2 6 4 11 8 10 7 6 8 8
4 3 2 2 5 2 2 5 4 3 3 4 3 4 5 4 3 4 6 7 1 3 6 3 5 4 10 6 3 8 6 9 8 6 10 5 9 2 6 5 6 6 7 6 10
4 2 1 4 2 2 3 5 4 3 5 4 4 6 3 3 2 6 4 4 2 2 3 4 5 5 11 1 2 5 7 12 14 11 18 7 8 7 1 7 7 9 8 9 11
4 2 5 5 1 6 2 5 5 4 4 4 4 2 2 4 7 6 4 4 1 4 7 2 4 6 8 8 2 4 5 2 8 12 17 12 8 6 8 9 10 9 7 7 7
3 3 4 3 3 2 2 3 2 4 3 4 3 7 7 3 3 6 5 4 4 3 2 4 6 4 10 15 14 15 15 7 7 9 5 3 19 13 5 8 7 12 12 11 10
6 5 2 3 3 3 4 5 6 4 5 6 6 4 7 7 10 11 10 5 6 2 2 2 6 3 9 9 12 13 10 12 13 12 10 11 13 5 5 6 3 11 13 13 12
1 2 4 4 4 3 7 7 6 4 6 6 8 3 7 15 12 14 12 9 8 5 7 3 4 4 6 7 8 9 14 11 4 7 6 9 16 11 7 13 13 11 11 12 10
Wind_Direction
27 21 23 20 24 18 14 9 3 2 357 354 354 353 353 344 341 17 38 354 339 334 329 310 298 332 29 293 129 124 86 206 208 157 245 330 42 2 293 122 78 248 152 48 131
26 21 18 13 16 13 13 8 1 356 354 350 348 346 348 343 355 46 357 357 352 347 356 358 342 348 3 271 192 132 164 215 206 195 210 228 149 328 10 357 254 75 35 122 138
26 21 16 13 11 3 4 -0 357 354 351 347 344 342 340 346 43 17 348 353 354 349 338 325 319 322 251 196 199 169 193 221 238 212 166 180 261 140 129 231 238 211 152 164 154
21 20 18 15 5 357 353 353 350 350 347 343 342 341 334 327 31 341 348 351 1 346 17 0 4 337 238 221 226 187 218 183 224 221 175 208 169 300 153 210 283 262 165 158 173
9 8 13 11 3 356 350 347 345 343 342 339 339 345 4 13 313 336 345 343 1 3 21 8 37 2 220 266 285 219 233 198 200 190 228 276 239 225 260 251 326 185 167 176 184
356 356 3 5 0 355 351 344 338 335 335 330 332 2 39 355 308 338 343 345 3 22 353 21 43 292 284 287 230 326 258 226 209 203 215 186 237 147 264 199 47 159 182 188 186
356 350 353 354 353 352 345 337 332 329 330 332 340 75 68 237 339 327 358 325 334 11 352 350 348 40 341 302 341 289 279 245 214 188 220 156 255 210 216 172 176 186 185 188 203
3 355 348 346 344 344 336 330 327 322 331 344 83 75 259 269 295 350 1 343 342 354 305 279 275 214 180 313 313 225 224 238 202 164 246 173 254 218 211 173 212 211 204 205 206
346 345 348 348 345 338 330 325 326 336 348 90 54 90 291 317 35 328 355 314 316 336 311 254 307 242 186 99 301 242 242 229 323 209 184 195 263 223 195 187 204 215 212 212 216
343 346 346 347 349 349 336 331 344 9 10 53 104 31 354 323 306 310 294 359 345 339 356 37 188 248 178 152 218 249 237 277 229 206 211 228 240 268 232 183 201 199 211 211 212
342 345 348 350 356 357 358 17 14 354 41 297 286 264 288 295 288 317 337 351 358 47 18 348 18 222 260 227 252 279 306 317 334 272 240 230 232 239 231 228 236 204 207 214 213
337 345 350 353 11 13 34 68 105 213 314 308 276 267 270 258 317 326 340 46 43 350 352 8 270 241 284 290 237 248 260 281 285 252 243 265 249 242 225 226 220 218 221 219 221
309 321 342 350 23 37 76 48 322 161 287 302 265 278 290 144 318 295 67 80 73 159 223 203 252 350 301 270 260 248 248 248 262 332 267 359 264 239 236 227 219 233 217 213 213
286 288 337 347 39 296 44 325 68 96 62 300 352 334 351 320 298 241 210 144 37 305 257 244 258 243 261 265 280 264 257 234 232 270 251 164 271 219 222 228 222 217 214 200 212
286 241 69 60 161 49 303 344 56 50 32 301 306 286 329 64 305 348 197 82 211 221 116 247 274 252 244 238 217 259 278 294 217 227 331 256 264 244 187 228 225 213 212 209 214
171 149 116 42 52 336 325 74 44 42 278 327 322 347 359 352 278 309 339 77 226 249 221 245 338 253 230 308 267 252 318 279 290 227 239 225 223 211 199 226 219 207 212 213 202
143 120 73 75 125 318 34 41 35 105 321 302 318 352 340 300 318 352 313 309 230 3 312 311 234 219 166 256 247 200 169 207 223 196 230 189 210 243 277 287 228 214 206 206 189
125 91 47 57 8 67 44 49 71 241 236 314 313 321 318 356 328 337 302 309 307 168 253 212 316 169 191 206 197 204 193 241 191 199 246 90 226 236 253 199 257 309 279 134 138
109 14 46 352 26 57 68 56 202 203 219 321 330 36 318 338 355 0 256 237 255 239 242 200 266 264 223 171 190 194 231 249 282 278 318 184 238 309 115 27 17 5 80 165 145
94 68 14 330 49 59 72 241 203 216 262 104 194 133 252 283 8 33 322 232 265 212 231 276 285 239 217 170 217 223 236 214 205 229 240 228 231 232 182 198 235 233 130 86 94
66 61 285 1 60 51 156 229 248 227 216 175 216 272 231 276 186 270 250 287 240 316 285 274 262 288 18 211 184 206 241 247 312 214 242 280 250 244 201 209 208 180 142 123 104
103 49 332 39 53 110 190 206 246 260 163 248 214 226 221 200 267 254 232 219 103 308 314 289 293 263 235 254 235 220 237 228 230 253 239 236 258 17 281 295 131 119 107 92 105
105 167 45 81 136 263 283 281 260 236 212 183 229 208 168 238 289 216 248 254 184 350 233 310 299 325 331 42 182 222 212 233 243 247 251 251 258 355 142 113 119 120 115 115 110
84 43 332 54 30 135 170 264 290 233 258 201 223 107 181 235 212 268 259 294 255 222 249 60 257 218 228 229 213 255 239 269 262 231 250 223 292 306 290 154 137 121 111 104 102
58 243 194 244 281 106 116 187 255 283 242 230 269 206 176 229 262 231 243 261 272 308 311 143 260 225 263 257 255 263 258 242 239 263 249 249 221 257 193 279 163 135 127 120 112
138 139 147 134 164 166 210 244 210 266 179 257 221 216 184 201 200 268 283 265 237 237 341 294 276 290 286 261 220 254 245 235 237 236 249 262 281 146 133 107 165 144 139 139 139
158 52 118 184 162 139 220 219 214 174 256 235 217 224 224 236 235 242 247 239 242 216 280 233 275 335 264 337 334 286 241 207 210 203 188 212 223 162 150 164 181 161 153 153 147